Flag for Morocco Weather past 2 weeks in Tangier, Morocco

Now
75 °F

Partly sunny.


Feels Like: 77 °F
Forecast: 66 / 76 °F
Wind: 10 mph from Southwest

Location: Tanger Aerodrome

Current Time: Sep 21, 2014 at 7:44:05 PM

Latest Report: Sep 21, 2014 at 7:00 PM


Visibility: 5 mi

Pressure: 30.01 "Hg

Humidity: 65%

Dew point: 63 °F

Location of TangierLocation

Historic Weather in Tangier — Graph

°F

Tangier temperature yesterday

Maximum temperature yesterday: 82 °F (at 12:00 PM)
Minimum temperature yesterday: 63 °F (at 7:00 AM)
Average temperature yesterday: 72 °F

Past Weeks' High & Low Weather Summary

 TemperatureHumidityPressure
High84 °F (Sep 15, 1:30 PM)94% (Sep 9, 4:30 AM)30.07 "Hg (Sep 9, 4:30 AM)
Low63 °F (Sep 14, 1:00 AM)37% (Sep 16, 11:00 AM)29.77 "Hg (Sep 16, 4:30 AM)
Average73 °F74%29.97 "Hg
* Reported Sep 6 6:00 PM — Sep 21 6:30 PM, Tangier, Weather by CustomWeather, © 2014

Note: Actual official high and low records may vary slightly from our data, if they occured in-between our weather recording intervals... More about our weather records

Advertising

Tangier weather history for previous 24 hours

 ConditionsComfort  
Time TempWeatherWind HumidityBarometerVisibility
6:30 PM
Sep 21
75 °FPartly sunny.10 mph69%30.01 "Hg5 mi
6:00 PM75 °FScattered clouds.12 mph69%30.01 "Hg5 mi
5:30 PM75 °FScattered clouds.14 mph65%30.01 "Hg5 mi
5:00 PM77 °FScattered clouds.13 mph54%30.01 "Hg5 mi
4:30 PM79 °FScattered clouds.14 mph48%30.01 "Hg5 mi
4:00 PM77 °FScattered clouds.13 mph61%29.98 "Hg5 mi
3:30 PM82 °FScattered clouds.13 mph51%30.01 "Hg5 mi
3:00 PM77 °FScattered clouds.5 mph61%30.01 "Hg5 mi
2:30 PM77 °FScattered clouds.15 mph61%30.04 "Hg5 mi
1:30 PM79 °FBroken clouds.10 mph48%30.01 "Hg5 mi
1:00 PM81 °FBroken clouds.8 mph48%30.01 "Hg5 mi
12:30 PM84 °FBroken clouds.5 mph37%30.01 "Hg5 mi
12:00 PM81 °FBroken clouds.7 mph45%30.01 "Hg5 mi
11:30 AM81 °FPartly sunny.6 mph45%30.04 "Hg5 mi
11:00 AM79 °FBroken clouds.9 mph54%30.01 "Hg5 mi
10:30 AM73 °FPartly sunny.8 mph65%30.01 "Hg5 mi
10:00 AM72 °FPartly sunny.8 mph73%30.01 "Hg5 mi
9:30 AM72 °FPartly sunny.3 mph73%30.01 "Hg5 mi
9:00 AM72 °FPartly sunny.5 mph73%30.01 "Hg5 mi
8:30 AM70 °FPartly sunny.7 mph78%30.01 "Hg5 mi
8:00 AM70 °FPartly sunny.8 mph73%30.01 "Hg5 mi
7:30 AM70 °FPartly sunny.9 mph78%30.04 "Hg5 mi
7:00 AM68 °FPassing clouds.5 mph78%30.01 "Hg5 mi
6:30 AM68 °FPassing clouds.6 mph83%29.98 "Hg1 mi
6:00 AM68 °FPassing clouds.3 mph83%29.98 "Hg5 mi
5:30 AM68 °FPassing clouds.3 mph83%29.95 "Hg1 mi
5:00 AM68 °FPassing clouds.9 mph88%29.98 "Hg5 mi
4:30 AM68 °FPassing clouds.8 mph83%29.98 "Hg1 mi
4:00 AM68 °FPassing clouds.7 mph83%29.98 "Hg5 mi
3:00 AM68 °FPassing clouds.3 mph78%30.01 "Hg5 mi
2:30 AM68 °FPassing clouds.3 mph78%30.01 "Hg2 mi
2:00 AM70 °FPassing clouds.No wind73%30.01 "Hg5 mi
1:30 AM70 °FPassing clouds.3 mph73%30.04 "Hg2 mi
1:00 AM72 °FPassing clouds.5 mph69%30.04 "Hg5 mi
12:00 AM73 °FPassing clouds.6 mph65%30.04 "Hg5 mi
11:30 PM
Sep 20
73 °FPassing clouds.8 mph61%30.04 "Hg5 mi
11:00 PM73 °FPassing clouds.10 mph61%30.04 "Hg5 mi
10:30 PM73 °FPassing clouds.8 mph65%30.04 "Hg5 mi
10:00 PM75 °FPassing clouds.8 mph61%30.04 "Hg5 mi
9:30 PM72 °FPassing clouds.5 mph73%30.04 "Hg5 mi
9:00 PM72 °FPassing clouds.No wind78%30.04 "Hg5 mi
8:30 PM72 °FPassing clouds.2 mph78%30.01 "Hg5 mi
8:00 PM73 °FPassing clouds.3 mph74%30.01 "Hg5 mi
7:30 PM73 °FPassing clouds.2 mph74%30.01 "Hg5 mi
7:00 PM73 °FPartly sunny.5 mph74%30.01 "Hg5 mi
Weather by CustomWeather, © 2014

See weather overviewHow to use our weather pages